Location: Newark
(42.8481°N, 0.4872°E)
Time: 07:22:48
(UTC+00:00)

Vanguard 2 - Pass Details

Date: 30 October 2020
Orbit: 554 x 2937 km, 32.9° (Epoch: 28 November)

Event Time Altitude Azimuth Distance (km) Brightness Sun altitude
Rises 16:28:11 0° 191° (S) 4,419 11.9 3.4°
Reaches altitude 10° 16:32:03 10° 173° (S) 3,846 11.3 2.7°
Maximum altitude 16:38:40 19° 134° (SE) 3,802 10.8 1.6°
Drops below altitude 10° 16:47:07 10° 97° (E) 5,119 11.2 0.1°
Sets 16:53:32 0° 83° (E) 6,487 11.6 -1.0°
Enters shadow 16:53:35 - 83° (E) 6,497 11.6 -1.0°
